Regional Weather Roundup
Issued by NWS Wakefield, VA

Home | Current Version | Previous Version | Graphics & Text | Print | Product List | Glossary On
Versions: 1 2 3 4 5 6 7 8 9 10 11 12 13 14 15 16 17 18 19 20 21 22 23 24 25 26 27 28 29 30 31 32 33 34 35 36 37 38 39 40 41 42 43 44 45 46 47 48 49 50
000
ASUS41 KAKQ 032114
RWRAKQ

REGIONAL WEATHER ROUNDUP
NATIONAL WEATHER SERVICE WAKEFIELD VA
500 PM EDT SUN MAY 03 2015

Note: "fair" indicates few or no clouds below 12,000 feet with no
significant weather and/or obstructions to visibility. * = Denotes
station may not report precipitation (e.g., rain,snow,etc.),
thunder or fog.

VAZ042-051-052>054-056-032200-
NORTHERN VIRGINIA

CITY           SKY/WX    TMP DP  RH WIND       PRES   REMARKS
WASH NATIONAL  PTSUNNY   80  46  30 S9        30.09S
DULLES         PTSUNNY   79  41  25 NW8       30.09S
FORT BELVOIR   NOT AVBL
QUANTICO       MOSUNNY   75  45  34 S6        30.10S
FREDERICKSBRG* SUNNY     82  44  25 SW8       30.09S
STAFFORD*      PTSUNNY   78  35  21 W6        30.13F
WARRENTON      SUNNY     81  46  30 SW8       30.10S
CULPEPER*      NOT AVBL
MANASSAS*      MOSUNNY   81  61  50 SE7       30.09F
LEESBURG*      MOSUNNY   79  46  31 W3        30.09F
WINCHESTER     CLOUDY    81  30  16 SE5       30.10S
FRONT ROYAL*   MOCLDY    79  43  27 W5        30.09F
LURAY*         FAIR      77  43  29 SW3       30.11S
$$

VAZ048-049-060>072-079>083-032200-
CENTRAL AND SOUTH CENTRAL VIRGINIA

CITY           SKY/WX    TMP DP  RH WIND       PRES   REMARKS
RICHMOND       MOSUNNY   80  39  23 S9        30.11S
CHESTERFIELD*  FAIR      81  39  22 W6        30.13S
PETERSBURG*    PTSUNNY   76  48  37 CALM      30.13S
HANOVER        PTSUNNY   80  39  23 W5        30.12F
TAPPAHANNOCK*  MOSUNNY   79  33  18 N3        30.11S
QUINTON*       CLOUDY    80  41  24 CALM      30.11S
CHARLOTTSVILLE MOSUNNY   77  42  28 S7        30.10F
GORDONSVILLE*  MOCLDY    77  41  27 CALM      30.10S
ORANGE*        MOSUNNY   79  41  25 SE3       30.12F
LOUISA*        PTSUNNY   77  45  31 CALM      30.10F
BUMPASS*       FAIR      78  41  27 CALM      30.11F
FARMVILLE*     MOSUNNY   78  41  26 CALM      30.11S
CREWE*         FAIR      78  37  23 SW3       30.12F
FORT PICKETT*  FAIR      78  40  25 W10       30.12F
CHASE CITY*    FAIR      79  43  27 CALM      30.13F
CLARKSVILLE*   FAIR      77  45  31 NW5       30.13S
SOUTH HILL*    MOSUNNY   75  44  32 CALM      30.19F
LAWRENCEVILLE* FAIR      77  42  28 CALM      30.13S
EMPORIA*       MOSUNNY   77  41  27 S6        30.15S
$$

VAZ088>098-032200-
SOUTHEAST VIRGINIA

CITY           SKY/WX    TMP DP  RH WIND       PRES   REMARKS
NORFOLK        SUNNY     79  37  22 SW7       30.12S
VIRGINIA BEACH MOSUNNY   74  50  42 SE7       30.12S
NORFOLK NAVAL  MOSUNNY   83  41  22 SW6       30.13F
WEST POINT*    SUNNY     82  26  13 SW3       30.13S
SALUDA*        FAIR      75  46  34 E7        30.11S
NEWPORT NEWS   MOSUNNY   83  41  22 SW8       30.12S
LANGLEY AFB    MOSUNNY   79  42  27 NW12      30.10F
FORT EUSTIS    SUNNY     79  43  27 W5        30.10F
WILLIAMSBURG*  SUNNY     84  45  24 W7        30.12S
HR EXEC AP*    FAIR      79  43  27 SW5       30.13F
FRANKLIN*      MOSUNNY   79  41  26 W7        30.13S
WAKEFIELD      CLOUDY    80  41  24 SW6       30.12F
$$

VAZ020-022-025-037-045-032200-
WEST CENTRAL AND SOUTHWEST VIRGINIA

CITY           SKY/WX    TMP DP  RH WIND       PRES   REMARKS
STAUNTON*      PTSUNNY   75  38  26 S7        30.14S
WAYNESBORO*    FAIR      74  37  25 NW6       30.13F
HOT SPRINGS VA CLOUDY    66  31  27 S9        30.20S
LYNCHBURG      PTSUNNY   74  39  28 CALM      30.15F
DANVILLE       PTSUNNY   78  43  28 W6        30.13F
SOUTH BOSTON*  FAIR      75  42  29 CALM      30.13F
MARTINSVILLE   MOSUNNY   79  40  25 SW6       30.16S
ROANOKE        PTSUNNY   74  39  28 SE8       30.15F
BLACKSBURG     MOSUNNY   71  37  29 W3        30.20F
DUBLIN*        MOSUNNY   74  37  26 CALM      30.17F
MARION*        MOSUNNY   72  39  29 SE3       30.18F
HILLSVILLE*    PTSUNNY   70  43  37 SE7       30.18S
RICHLANDS*     FAIR      71  31  22 CALM      30.17S
WISE*          SUNNY     73  32  21 CALM      30.17F
ABINGDON*      SUNNY     74  40  29 W7        30.15F
$$

MDZ021>025-VAZ099-100-032200-
SOUTHERN MARYLAND AND THE DELMARVA PENINSULA

CITY           SKY/WX    TMP DP  RH WIND       PRES   REMARKS
PATUXENT RIVER MOSUNNY   76  43  30 SE8       30.10S
BAY BRIDGE APT   N/A    N/A N/A N/A SE7       30.09S
LEONARDTOWN    MOSUNNY   79  37  22 NE7       30.10F
DOVER          NOT AVBL
GEORGETOWN     MOSUNNY   78  41  26 E12       30.09S
EASTON         MOSUNNY   81  45  28 SW7       30.13S
CAMBRIDGE      SUNNY     79  37  22 W3        30.09F
SALISBURY      PTSUNNY   80  40  23 W10       30.09S
OCEAN CITY     SUNNY     63  49  60 SE6       30.11F
WALLOPS ISLAND SUNNY     77  44  30 W9        30.10S
ACCOMACK*      SUNNY     77  45  31 NW6       30.12S
$$

NCZ012>017-030>032-032200-
NORTH CENTRAL AND EASTERN NORTH CAROLINA

CITY           SKY/WX    TMP DP  RH WIND       PRES   REMARKS
ROANOKE RAPIDS MOCLDY    77  45  31 CALM      30.14S
RALEIGH        PTSUNNY   78  47  33 S5        30.15F
ELIZABETH CITY SUNNY     75  47  36 SW8       30.13F
AHOSKIE*       MOSUNNY   76  44  31 CALM      30.14S
EDENTON*       MOSUNNY   76  46  34 S5        30.15R
CURRITUCK*     PTSUNNY   77  43  30 CALM      30.14S
KILL DEVIL HLS SUNNY     78  35  20 CALM      30.14S
MANTEO         SUNNY     73  52  47 S7        30.16R
CAPE HATTERAS  SUNNY     67  56  67 SW7       30.17S
TARBORO*       FAIR      77  45  32 W3        30.16S
GOLDSBORO      MOSUNNY   79  44  29 CALM      30.13F
WASHINGTON     MOSUNNY   78  45  30 SW5       30.15F
GREENVILLE     MOSUNNY   79  45  29 CALM      30.16F
NEW BERN       PTSUNNY   79  44  28 SW5       30.16S
WILMINGTON     SUNNY     76  41  28 S9        30.17S
$$

VAZ048-032200-
ELSEWHERE

CITY           SKY/WX    TMP DP  RH WIND       PRES   REMARKS
HARRISBURG PA  PTSUNNY   79  37  22 CALM      30.06S
BALTIMORE      PTSUNNY   77  40  26 W9G17     30.07S
ANNAPOLIS      SUNNY     72  51  47 SE9       30.08S
ANDREWS AFB    NOT AVBL
PHILADELPHIA   MOSUNNY   79  35  20 SW5       30.07S
HENDERSON NC   PTSUNNY   75  41  29 CALM      30.14S
GREENSBORO     PTSUNNY   77  43  29 CALM      30.14F
ROCKY MOUNT    MOSUNNY   78  46  32 S6        30.15S
$$

VAZ100-032200-
MARINE

STATION/POSITION TIME  TEMP    WIND        PRES    WAVE   SWELL
                       AIR SEA DIR/SP/G            HT/PER HT/PER
                 (UTC) (F)     (DEG/KT/KT) (MB)    (FT/S) (FT/S)
BRANDYWINE LGT   2012          150/ 12/ 12   N/A
CAPE MAY NJ      2000   67 60  180/  5/  7 1018.9F
LEWES DE         2000   70 56  100/  7/ 10 1019.0F
15NM E FENWICK I 2050   54 52              1019.5F   4/12
OCEAN-CITY-INLET 2012   62 59  150/  4/  6 1019.4F
WACHAPREAGUE VA  2000   79 66  320/  3/  7 1019.8F
THOMAS POINT MD  2100   69 58  170/ 11/ 11 1019.4F
GOOSES REEF MD   2100   69 62                N/A     0
COVE POINT MD    2000   72     190/  9/ 10 1020.0F
SOLOMONS ISLAND  2000      61                N/A
BISHOPS HEAD MD  2000   69 64  170/  5/  5 1019.2F
PINEY POINT MD   2000          170/  5/  6   N/A
CAMBRIDGE MD     2000   76 61   20/  1/  2 1019.0F
LEWISETTA VA     2000   66 62              1019.3F
RAPPAHANNOCK LGT 2000          180/  6/  7 1020.6F
YORK RVR RNG VA  2000   67     150/  8/  9 1019.4F
YORKTOWN VA      2000   77 63  310/  6/  8 1019.5F
JAMESTOWN VA     2100   76 67  330/  4/  4 1019.0F
DOMINION TERM VA 2000   74     200/  4/  5 1020.1F
KIPTOPEKE VA     2000      63  150/  3/  3   N/A
CHES BAY BRIDGE  2012   72 60   60/  3/  3 1019.6F
CAPE HENRY VA    2000   73     330/  4/  4 1018.9F
CHESAPEAKE LGHT  2000   69     180/  3/  5 1021.1F
WILLOUBY STN VA  2000   77     210/  8/  9 1020.6F
S CRANEY ISL VA  2000          290/  4/  6 1020.0F
CAPE HENRY BUOY  2028      60                N/A     3/11   2/11
1ST LANDING BUOY 2100      61                N/A     2/ 6
CAPE CHARLES BUO 2026      62                N/A     4/ 9   5/ 9
OFFSHORE WE BUOY 2011      57                N/A     5/10   5/10
64NM E OF VA BCH 2050   63 63  210/  4/  4 1020.4F   5/13   5/13
DUCK PIER NC     2000   73 53  190/  7/ 10 1019.7F
44056 DUCK FRF   2011      60                N/A     5/10   3/11
OREGON INLET NC  2000   66 59  190/  9/ 10 1021.1F
HATTERAS NC      2012   73 63  250/  5/  7 1021.1F
DIAMOND SHLS NC  2050   65 62  240/  4/  6 1021.8F   5/11   5/11
CAPE LOOKOUT NC  2100   71     210/  9/ 12 1021.6S
$$


USA.gov is the U.S. government's official web portal to all federal, state and local government web resources and services.